Home   Weather   Hommersåk   Past weeks

Flag for Norway Past Weather in Hommersåk, Norway — Yesterday and Last 2 Weeks

Now
57 °F

Passing clouds.


Feels Like: 56 °F
Forecast: 54 / 58 °F
Wind: 7 mph from Southwest

Location: Stavanger / Sola

Current Time: Aug 18, 2017 at 10:23:29 pm

Latest Report: Aug 18, 2017 at 9:50 pm


Visibility: N/A

Pressure: 29.62 "Hg

Humidity: 82%

Dew Point: 52 °F

Location of HommersåkLocation

Past Weather in Hommersåk — Graph

°F

Hommersåk Temperature Yesterday

Maximum temperature yesterday: 63 °F (at 9:50 am)
Minimum temperature yesterday: 55 °F (at 12:20 am)
Average temperature yesterday: 59 °F

High & Low Weather Summary for the Past Weeks

 TemperatureHumidityPressure
High66 °F (Aug 18, 1:20 pm)100% (Aug 4, 12:20 am)30.15 "Hg (Aug 4, 12:20 am)
Low46 °F (Aug 14, 6:50 am)55% (Aug 14, 2:20 pm)29.39 "Hg (Aug 4, 5:50 am)
Average58 °F81%29.86 "Hg
* Reported Aug 3 9:50 pm — Aug 18 9:20 pm, Hommersåk. Weather by CustomWeather, © 2017

Note: Actual official high and low records may vary slightly from our data, if they occured in-between our weather recording intervals... More about our weather records

Advertising

Hommersåk Weather History for the Previous 24 Hours

Scroll right to see more
 ConditionsComfort  
Time TempWeatherWind HumidityBarometerVisibility
9:20 pm
Fri, Aug 18
59 °FPassing clouds.10 mph82%29.62 "HgN/A
8:50 pm59 °FScattered showers. Scattered clouds.10 mph82%29.62 "HgN/A
8:20 pm59 °FScattered showers. Partly sunny.13 mph88%29.62 "HgN/A
7:50 pm61 °FRain showers. Broken clouds.12 mph77%29.59 "HgN/A
7:20 pm61 °FScattered showers. Broken clouds.16 mph77%29.59 "HgN/A
6:50 pm63 °FScattered showers. Broken clouds.16 mph73%29.62 "HgN/A
6:20 pm61 °FBroken clouds.20 mph77%29.59 "HgN/A
5:50 pm63 °FScattered clouds.20 mph73%29.59 "HgN/A
5:20 pm64 °FBroken clouds.21 mph78%29.59 "HgN/A
4:50 pm63 °FBroken clouds.16 mph83%29.59 "HgN/A
4:20 pm63 °FScattered showers. Broken clouds.16 mph73%29.59 "HgN/A
3:50 pm64 °FPartly sunny.16 mph68%29.59 "HgN/A
3:20 pm64 °FBroken clouds.18 mph68%29.62 "HgN/A
2:50 pm66 °FBroken clouds.17 mph64%29.62 "HgN/A
2:20 pm66 °FScattered clouds.14 mph64%29.62 "HgN/A
1:50 pm66 °FScattered clouds.15 mph64%29.62 "HgN/A
1:20 pm66 °FBroken clouds.16 mph64%29.62 "HgN/A
12:50 pm63 °FBroken clouds.14 mph73%29.65 "HgN/A
12:20 pm64 °FPartly sunny.14 mph68%29.65 "HgN/A
11:50 am63 °FPartly sunny.12 mph68%29.68 "HgN/A
11:20 am63 °FPartly sunny.13 mph68%29.68 "HgN/A
10:50 am61 °FSunny.13 mph68%29.68 "Hg10 mi
10:20 am61 °FSunny.13 mph72%29.68 "Hg10 mi
9:50 am59 °FSunny.10 mph82%29.68 "Hg10 mi
9:20 am57 °FSunny.8 mph82%29.68 "Hg10 mi
8:50 am57 °FSunny.7 mph88%29.71 "Hg10 mi
8:20 am54 °FPassing clouds.5 mph94%29.71 "HgN/A
7:50 am52 °FScattered clouds.No wind100%29.71 "HgN/A
7:20 am52 °FPartly sunny.3 mph94%29.71 "HgN/A
6:50 am52 °FPassing clouds.6 mph94%29.71 "HgN/A
6:20 am52 °FPassing clouds.7 mph94%29.71 "HgN/A
5:50 am52 °FClear.7 mph94%29.71 "Hg10 mi
4:50 am52 °FClear.7 mph100%29.74 "Hg10 mi
3:50 am52 °FLight fog.3 mph100%29.74 "Hg6 mi
2:50 am50 °FLight fog.2 mph100%29.74 "Hg6 mi
1:50 am54 °FPassing clouds.3 mph100%29.74 "HgN/A
1:20 am55 °FPassing clouds.2 mph100%29.74 "HgN/A
12:50 am55 °FPartly cloudy.2 mph94%29.74 "HgN/A
12:20 am57 °FPartly cloudy.3 mph94%29.74 "HgN/A
11:50 pm
Thu, Aug 17
59 °FPassing clouds.5 mph94%29.74 "HgN/A
11:20 pm59 °FPartly cloudy.8 mph94%29.74 "HgN/A
10:50 pm59 °FScattered showers. Partly cloudy.7 mph94%29.74 "HgN/A
10:20 pm59 °FScattered showers. Partly cloudy.6 mph94%29.74 "HgN/A
Weather by CustomWeather, © 2017

See weather overviewHow to use our weather pages